Weather in Mokryy Michkass

Russia / Penza Oblast     53°20′51″N   43°36′12″E
temp.,
°C
wind,
m/s
gust,
m/s
humid.,
%
clouds,
%
prec.,
mm/h
press.,
hPa
HPBL,
m
19 september, sun
sun1900:00+5e3867100 0.0 1025239
03:00+4e3872100 0.0 1024175
06:00+4e4972100 0.0 1024237
09:00+8ese5756100 0.0 1024514
12:00+10se6749100 0.0 1024961
15:00+10ese5952100 0.0 1022646
18:00+9ese3755100 0.0 1022404
21:00+9ese61056100 0.1 1021740
20 september, mon
mon2000:00+7ese71384100 1.6 1021516
03:00+7ese81675100 2.3 1020586
06:00+6ese91779100 1.9 1018760
09:00+6ese101890100 10.0 1019871
12:00+6ese101885100 2.8 1018834
15:00+6ese91786100 4.1 1019945
18:00+6ese91789100 0.8 1018814
21:00+6ese91788100 0.9 1018787
21 september, tue
tue2100:00+7ese91688100 0.4 1018685
03:00+7ese71492100 0.8 1017527
06:00+6ese6139285 0.0 1017442
09:00+9se698098 0.0 1017593
12:00+12ese6875100 0.2 1015803
15:00+14ese5870100 0.6 1014763
18:00+12ese71274100 0.0 1013562
21:00+10ese7138895 0.9 1014465
22 september, wed
wed2200:00+8ese51093100 0.1 1013300
03:00+9se3694100 0.2 1013186
06:00+9se229624 0.0 101425
09:00+11sse1286100 0.1 1014152
12:00+14sse1168100 0.2 1015561
15:00+15nne016283 0.2 1015657
18:00+12e358455 0.3 101593
21:00+9e339643 0.4 101656
23 september, thu
thu2300:00+9e3596100 0.0 1017140
03:00+9e349642 0.0 101696
06:00+8e339799 0.0 101655
09:00+12ese368788 0.0 1016223
12:00+17se5759100 0.4 10151111
15:00+16s5868100 2.3 1014803
18:00+13se3478100 0.3 101581
21:00+11se61293100 0.4 1016522